Lapse_Rate
6.5 6.5 6.5 6.5 6.5 6.5 6.5 6.5 6.5 6.5 6.5 6.5 6.5 6.5 6.5 6.7 6.7 6.8 6.8 6.9 7.0 7.0 6.8 5.6 4.6 5.2 7.2 5.3 5.0 5.2 5.2 5.6 5.5 4.9 4.9 4.7 4.1 4.0 3.6 3.5 2.6 2.1 3.0 4.3
6.5 6.5 6.5 6.5 6.5 6.5 6.5 6.5 6.5 6.5 6.5 6.5 6.6 6.7 6.6 6.7 6.7 6.7 6.8 6.8 7.0 7.0 6.5 5.0 3.9 2.8 3.3 5.4 5.0 5.6 4.9 5.3 4.3 4.6 5.0 4.9 4.2 4.2 3.5 2.6 2.0 1.3 1.3 1.4
6.5 6.5 6.5 6.5 6.5 6.5 6.5 6.5 6.5 6.5 6.5 6.5 6.5 6.5 6.6 6.6 6.7 6.7 6.8 6.8 6.8 6.8 5.7 4.0 2.7 0.7 0.3 6.3 4.8 4.7 4.3 4.3 3.9 3.6 4.3 4.6 4.3 4.1 4.2 3.4 2.6 1.6 1.5 0.7
6.5 6.5 6.5 6.5 6.5 6.5 6.5 6.5 6.5 6.5 6.5 6.5 6.6 6.8 6.8 6.7 6.8 6.7 6.8 6.9 6.9 6.7 4.5 3.1 1.8 1.0 1.6 5.1 4.4 4.5 3.7 3.9 4.9 4.8 4.8 4.3 4.3 4.1 4.0 3.2 2.7 3.0 2.5 1.6
6.5 6.5 6.5 6.5 6.5 6.5 6.5 6.5 6.5 6.5 6.5 6.5 6.7 6.7 6.4 7.3 6.9 6.8 6.8 6.8 6.7 6.1 4.8 3.4 1.2 0.3 2.9 4.7 4.8 5.0 5.2 4.3 4.5 2.9 3.3 4.0 4.3 4.3 4.0 3.8 3.5 3.0 2.1 2.3
6.5 6.5 6.5 6.5 6.5 6.5 5.8 6.5 6.7 6.5 6.5 6.5 6.6 6.5 6.5 7.0 6.9 6.8 6.5 6.6 6.0 5.4 5.0 2.6 0.1 0.5 6.3 6.0 5.4 5.4 4.3 4.3 3.9 3.9 4.2 4.3 4.5 4.4 3.9 3.9 3.4 2.9 2.7 2.6
6.5 6.5 6.5 6.5 6.2 5.2 6.5 6.5 6.5 6.7 6.7 6.7 6.5 6.6 6.8 7.0 6.9 6.7 6.7 6.6 5.7 5.2 4.7 0.9 -1.0 5.1 5.1 5.5 4.8 4.4 4.2 3.6 3.5 3.3 2.9 3.0 3.5 3.5 3.2 2.9 3.0 3.0 2.8 3.0
6.5 6.5 6.5 5.9 6.4 6.5 5.5 6.3 6.7 6.8 7.0 6.8 7.0 7.1 7.0 7.2 6.9 6.7 5.9 5.1 4.3 5.1 5.7 2.1 -0.4 1.1 1.9 1.5 3.5 4.0 3.6 2.9 2.8 2.5 2.3 2.8 2.8 2.5 2.0 2.4 2.4 2.1 2.3 2.8
6.5 6.5 6.0 5.0 5.8 6.5 6.2 6.2 6.5 6.7 6.5 6.7 7.1 7.0 7.1 6.9 6.7 6.6 6.4 5.5 4.0 4.7 4.5 3.0 0.1 -2.2 -1.2 -1.8 2.6 2.5 2.1 2.0 1.6 1.2 1.6 1.7 1.4 1.5 1.5 2.0 1.7 1.9 2.5 2.4
6.5 6.5 5.7 4.1 5.7 5.7 5.5 5.4 6.2 6.0 6.0 7.2 6.9 7.0 6.8 6.8 6.3 6.3 5.7 4.4 3.5 3.7 4.0 2.0 -0.0 -1.0 -2.0 -1.9 0.1 -0.1 -1.0 -0.7 0.0 -0.2 -1.0 -0.6 0.7 1.0 0.5 1.0 1.3 1.5 1.7 1.5
6.5 5.6 4.1 5.5 5.2 4.7 5.1 5.6 5.7 5.7 6.5 6.4 6.2 6.4 6.3 6.0 5.9 5.8 5.8 4.4 3.9 3.9 3.4 2.7 1.4 -0.3 -2.3 -2.4 -1.6 -1.4 -1.4 -1.5 -1.3 -1.4 -1.1 -1.4 -1.3 -1.0 -0.3 -0.6 0.8 0.4 1.2 1.1
6.5 5.1 5.5 4.3 3.8 4.9 5.1 5.3 5.6 5.6 6.3 5.5 5.7 5.7 5.7 5.4 5.8 5.9 5.0 4.1 3.5 2.8 2.7 2.4 1.7 0.1 -1.7 -1.3 -2.2 -1.4 -1.5 -1.4 -1.3 -0.9 -1.2 -0.7 -0.4 -0.7 0.0 -0.1 0.5 0.2 0.3 0.2
2.7 3.9 3.1 3.6 3.3 4.8 4.6 5.1 5.1 6.3 5.4 5.2 4.8 5.2 5.0 5.1 5.1 5.4 4.2 3.7 3.4 3.1 2.7 2.2 1.7 0.5 0.9 0.7 -0.2 -1.0 -1.5 -1.3 -0.7 -0.5 -0.7 -0.6 -0.8 -1.2 -0.8 -0.1 0.7 0.9 0.5 0.0
2.2 0.8 2.9 4.3 4.1 3.4 4.0 4.8 4.7 4.0 4.1 4.1 3.8 4.0 4.3 4.6 4.3 4.4 3.6 3.5 3.1 2.9 2.7 2.4 2.5 1.6 0.9 -0.4 0.2 0.4 -0.5 -0.1 -1.1 -1.4 -1.0 -0.5 -0.4 -0.5 -0.7 -0.8 -0.4 -0.2 0.9 1.3
0.5 0.6 1.9 1.8 2.0 3.2 3.3 3.4 3.7 3.6 3.8 3.6 3.6 3.6 3.9 3.4 3.5 3.6 3.6 2.9 3.1 3.1 2.0 1.9 2.2 2.2 1.5 1.2 0.7 0.3 0.6 0.6 0.1 -0.3 -0.3 -0.3 -0.8 -0.6 -0.5 -0.8 -0.9 -0.1 0.7 1.8
-1.1 -0.2 -0.2 0.1 2.0 2.2 1.5 2.6 4.0 3.8 4.0 4.0 3.4 3.9 3.7 2.5 2.4 2.9 3.4 2.6 2.5 3.0 3.0 2.6 2.7 2.3 1.2 0.3 0.7 0.4 0.5 1.8 1.1 0.5 0.4 0.5 0.2 -0.1 -0.1 -0.2 0.2 0.1 0.6 0.7
0.4 0.9 0.1 -0.2 0.1 0.6 1.5 3.4 3.8 4.0 3.6 2.8 3.6 3.1 2.5 2.6 3.1 2.9 3.0 2.8 2.5 2.3 3.1 2.6 3.2 3.0 2.4 1.6 0.5 0.1 0.4 1.0 1.7 0.3 0.4 0.6 0.7 0.8 0.7 0.7 0.6 0.8 0.8 1.2
-4.7 -4.1 -3.0 -0.1 0.3 1.3 2.4 2.3 3.4 3.9 3.5 3.1 2.7 1.6 2.5 3.7 3.7 3.5 3.1 2.2 3.1 3.3 3.0 2.7 3.5 3.0 1.9 1.5 0.7 1.0 0.9 0.7 0.5 0.5 0.1 0.6 0.8 0.5 0.6 0.8 1.4 1.4 1.4 0.3
-5.9 -2.5 -1.4 -0.4 0.5 1.5 1.8 2.5 3.1 3.7 2.6 2.0 2.6 2.3 2.8 2.1 2.6 3.4 3.2 3.4 3.4 3.7 3.7 3.4 4.1 2.3 1.7 3.2 1.3 1.2 1.8 1.3 1.0 1.1 1.5 1.5 0.8 1.0 1.1 0.6 0.7 0.2 0.5 0.4
-4.4 -4.3 -2.6 -1.0 1.0 1.8 1.7 1.3 3.8 4.1 2.9 2.9 3.1 3.1 2.8 2.6 2.6 3.2 3.8 4.6 5.0 5.6 4.8 4.2 3.1 2.3 1.8 2.3 2.7 0.9 0.9 1.7 1.5 1.2 1.0 0.8 0.6 0.4 0.4 0.4 0.3 0.3 0.7 0.7
-1.3 -0.2 0.9 2.8 3.0 3.8 3.9 3.3 4.3 4.6 3.6 3.9 4.0 3.6 2.9 3.0 3.4 3.5 3.8 4.1 4.2 6.1 5.1 4.4 3.9 2.5 2.4 2.0 1.4 1.0 1.3 0.6 0.9 0.9 1.0 0.9 0.4 0.4 0.4 0.5 0.5 0.5 0.5 0.4
0.6 1.7 3.1 3.8 3.5 3.6 3.7 3.1 4.2 5.0 4.5 4.2 4.5 4.1 3.9 3.7 3.2 3.6 4.7 4.8 4.7 6.4 4.6 4.0 3.8 4.5 3.2 2.4 1.6 1.4 1.1 1.0 1.0 0.9 1.1 1.0 0.6 0.4 0.5 0.4 0.1 0.3 0.2 0.3
2.8 3.3 3.8 3.9 3.9 3.4 3.2 3.5 3.8 4.6 4.6 4.5 4.5 4.1 4.0 4.0 3.0 2.6 2.0 3.6 4.6 4.9 4.3 4.4 5.0 4.4 3.3 1.2 1.1 1.2 1.6 1.4 1.1 0.9 0.7 0.7 0.5 0.5 0.4 0.4 0.4 0.4 0.3 0.1
3.4 3.6 3.8 4.4 4.0 4.0 3.6 4.1 4.0 4.4 4.5 4.8 4.9 4.5 4.0 3.6 3.5 3.1 2.9 3.9 5.1 3.9 3.5 5.0 4.5 4.0 2.5 1.5 1.6 1.2 1.2 1.2 1.2 1.4 1.5 1.4 0.7 0.7 0.8 0.8 0.8 0.9 0.8 0.9
3.7 3.6 3.6 3.6 3.9 4.0 3.7 4.0 4.3 4.2 4.6 4.6 4.7 4.4 4.0 3.3 2.9 2.6 1.8 2.1 3.5 2.9 2.8 4.0 4.0 3.2 1.5 1.1 0.7 1.0 2.0 1.7 1.0 0.9 1.1 1.0 0.8 0.5 0.4 0.3 0.3 0.3 0.3 0.3
3.4 3.1 3.2 3.4 3.6 3.3 3.3 4.1 4.8 4.8 5.2 4.7 4.8 4.4 3.8 3.4 3.1 2.5 1.9 2.9 2.2 2.7 1.8 2.6 2.9 1.5 1.5 1.4 1.1 1.0 0.6 0.4 0.5 0.7 0.2 0.2 0.0 -0.0 -0.1 -0.1 -0.1 -0.1 -0.1 -0.3
2.6 5.4 3.2 3.3 3.9 4.3 4.5 4.9 5.1 5.2 5.3 5.0 4.7 4.3 3.9 3.3 3.2 2.1 3.0 1.3 1.7 1.8 1.7 2.0 1.7 2.7 2.0 1.3 0.8 0.5 0.7 1.6 1.6 0.4 0.0 -0.1 -0.2 -0.2 -0.2 -0.3 -0.5 -0.7 -0.4 0.3
Wind_Speed
12 18 14 8 3 6 5 12 6 14 23 26 30 30 29 27 25 27 27 24 21 17 16 14 12 7 12 12 11 13 13 14 14 14 15 17 17 18 17 20 20 20 17 14
11 1 4 4 1 13 9 8 13 13 21 25 27 25 27 26 24 28 27 26 24 21 18 16 13 9 4 11 13 13 13 14 13 12 13 16 18 18 18 18 17 18 17 17
5 7 3 3 4 11 16 15 8 7 22 28 31 31 32 23 28 28 26 25 24 20 19 16 13 11 9 14 14 14 13 11 13 15 14 13 15 16 17 18 19 20 19 18
4 7 4 5 4 8 10 14 2 16 26 25 24 29 27 18 23 27 29 29 24 19 19 15 12 10 9 14 16 15 13 13 13 15 14 13 15 17 18 16 18 17 17 19
2 2 6 2 6 12 7 20 5 23 27 27 25 20 12 25 28 25 25 23 21 21 18 15 12 10 7 15 15 14 14 14 13 13 12 12 13 13 12 14 14 15 16 18
3 3 4 5 10 15 3 5 21 25 25 29 27 22 22 32 30 28 28 24 24 24 19 15 15 8 16 15 16 13 13 13 12 14 14 13 12 13 11 12 12 11 13 14
3 4 6 2 14 11 6 7 25 21 24 24 19 15 26 27 25 24 22 25 26 22 17 20 16 8 13 14 15 13 11 12 12 12 12 12 11 11 11 11 11 12 13 12
2 3 6 4 3 3 5 12 16 20 18 24 24 25 25 25 26 26 31 30 29 21 16 18 15 11 14 11 13 13 13 13 11 12 9 9 12 10 12 12 12 11 11 9
5 5 1 2 5 3 5 12 11 18 21 20 24 25 26 25 26 25 23 23 24 23 21 19 19 15 14 10 13 14 13 12 11 12 10 9 11 10 9 10 9 9 9 8
3 2 4 8 2 2 7 9 15 16 19 19 21 23 23 22 22 21 23 23 24 25 23 23 21 17 14 12 8 13 12 9 10 11 9 7 6 7 8 8 8 8 8 8
6 6 8 1 5 7 11 12 14 16 16 18 18 21 20 20 21 20 18 19 18 19 19 21 19 19 17 14 7 12 10 8 9 7 8 9 8 5 5 4 7 10 9 10
4 2 4 8 7 11 8 14 15 15 18 16 15 18 18 18 17 18 19 19 19 22 21 21 18 19 20 15 12 8 10 6 6 7 7 7 8 8 15 13 12 12 10 8
4 2 6 12 8 5 10 12 14 14 14 15 16 13 15 15 16 21 18 19 19 18 18 19 18 18 15 11 9 9 8 7 7 7 7 7 7 8 8 9 14 14 14 15
4 2 5 2 4 13 11 12 12 10 9 10 11 15 14 13 12 15 16 16 17 15 15 16 16 17 16 15 11 11 9 14 6 5 6 6 6 6 7 7 8 6 11 14
7 5 5 7 7 8 7 7 11 11 11 12 10 11 15 16 15 15 15 15 14 14 16 17 17 16 14 13 10 10 7 6 5 6 6 7 7 6 6 7 7 7 8 11
4 5 5 3 7 8 7 9 9 11 11 11 10 11 12 12 12 13 13 15 15 14 15 15 15 15 15 14 11 8 8 13 10 5 6 6 6 6 6 7 6 7 8 9
3 5 4 4 4 7 8 9 7 8 9 10 11 10 8 9 11 13 14 13 12 11 13 13 14 12 12 10 10 7 6 6 11 6 6 5 6 6 7 6 6 6 7 8
4 3 5 7 7 8 10 7 7 9 7 10 9 8 9 10 10 11 13 13 11 9 12 12 13 12 12 11 9 7 6 6 6 6 6 6 6 7 7 8 8 8 8 11
5 7 7 7 8 7 6 6 6 7 7 7 8 8 7 7 8 9 10 11 13 13 13 12 18 13 10 12 10 6 6 6 7 6 6 10 7 7 8 9 8 9 8 8
5 5 7 7 7 4 5 4 5 6 6 6 7 7 9 9 9 11 11 9 11 8 11 11 9 8 8 11 12 6 6 6 6 6 6 7 7 8 8 12 10 8 7 8
7 6 7 6 6 7 5 3 5 6 6 6 6 7 7 7 8 8 10 9 14 13 12 15 9 6 4 7 8 6 6 7 6 6 6 6 8 8 8 8 8 8 7 8
4 5 6 5 5 6 5 3 3 5 5 6 6 6 7 7 9 8 6 8 8 21 11 7 6 11 8 13 6 7 6 7 6 5 6 6 8 8 7 8 9 8 8 7
5 5 5 5 5 6 5 4 2 4 4 5 5 6 6 4 3 5 7 11 7 14 8 7 13 14 16 8 7 8 7 7 7 6 7 7 7 7 8 8 8 8 8 8
5 5 5 4 5 5 5 3 2 3 3 4 4 4 4 4 4 3 4 9 14 13 10 11 12 16 14 6 7 8 7 7 7 7 8 12 7 8 8 8 9 8 8 10
5 4 4 4 5 4 4 3 3 3 3 3 3 3 4 3 2 4 4 4 13 11 7 15 17 16 7 7 8 8 7 6 6 7 7 7 8 8 8 8 8 8 8 7
4 4 3 5 4 3 3 2 3 2 2 2 2 2 3 3 3 3 3 6 6 10 6 6 6 7 7 7 8 8 8 7 8 8 9 8 8 8 8 8 8 8 9 12
3 7 2 2 3 4 3 4 4 3 2 2 2 2 2 3 3 3 4 3 4 5 5 6 4 8 6 7 7 7 7 7 12 7 7 6 7 7 8 10 12 13 13 13
Wind_Direction
258 274 274 262 194 311 289 299 271 293 304 315 326 323 320 316 317 328 329 329 330 331 332 330 337 317 182 179 164 168 167 161 167 161 155 156 149 153 153 156 160 160 157 162
301 280 189 182 213 344 325 287 282 280 292 324 317 318 321 324 329 333 332 333 334 337 332 333 332 322 292 174 156 148 150 163 156 138 158 166 157 158 158 151 152 150 154 154
274 316 320 354 237 339 307 306 288 305 322 326 328 329 325 328 334 333 333 335 333 337 332 323 318 324 305 161 137 145 139 149 152 143 156 167 159 156 158 158 159 161 162 154
284 344 9 248 235 261 285 298 230 330 326 323 323 317 310 339 335 332 336 338 335 334 328 321 324 306 277 138 124 131 134 141 145 151 155 155 160 162 162 156 160 163 165 162
334 267 276 7 335 323 354 309 353 336 327 325 326 312 310 346 339 336 331 332 330 332 325 320 319 294 217 125 126 120 139 142 141 136 139 145 153 153 154 155 158 159 159 164
346 315 273 245 310 311 119 282 353 338 325 327 336 346 333 338 337 336 335 338 338 338 325 346 331 301 129 132 125 136 136 134 132 131 139 139 138 133 136 139 142 144 149 155
278 268 288 300 312 322 47 285 326 324 319 323 331 321 312 326 332 333 333 339 344 348 349 354 337 113 114 124 115 112 120 115 118 120 121 124 126 129 127 127 133 137 138 147
316 345 322 356 352 42 245 301 307 314 319 320 321 324 327 332 335 342 338 347 353 350 344 0 3 56 72 58 104 112 106 97 105 113 110 113 111 112 119 127 125 124 126 129
185 240 4 327 241 238 292 296 307 315 316 320 322 329 331 335 337 342 342 341 348 356 352 6 19 29 48 7 99 102 99 102 103 93 103 110 115 116 113 118 125 129 134 130
4 267 303 307 273 304 313 299 312 314 315 321 324 327 331 335 337 346 346 352 344 349 356 8 9 25 34 23 78 93 86 86 93 98 86 78 97 114 116 122 126 132 131 128
262 297 313 230 317 333 320 316 321 319 318 324 329 330 333 334 339 339 347 346 347 347 359 3 4 20 23 17 33 90 95 87 88 87 101 90 66 60 96 88 148 155 151 148
257 263 221 278 308 319 322 322 320 318 328 328 333 330 335 334 338 337 344 346 354 351 356 1 7 16 17 16 22 64 90 88 98 108 100 102 103 84 67 83 91 96 103 136
254 269 244 275 284 295 320 317 315 326 323 323 326 333 332 331 336 343 343 348 353 352 353 356 2 14 15 20 28 38 74 88 95 99 105 114 110 112 112 72 89 103 109 114
248 313 295 270 295 311 306 308 312 307 312 313 314 329 338 339 339 346 346 341 343 350 356 358 8 10 360 5 18 36 44 57 70 76 90 93 102 112 117 124 121 105 103 120
264 217 244 292 298 301 306 317 326 332 328 331 335 334 339 341 343 341 340 342 346 355 359 1 6 6 360 0 19 35 60 56 61 74 76 84 89 88 100 103 102 111 112 112
295 274 296 271 304 311 307 328 327 328 330 329 333 340 333 327 328 335 346 348 354 356 353 358 1 356 359 359 12 25 39 57 69 80 89 90 88 95 95 97 108 114 120 129
8 328 330 314 314 317 302 305 306 313 318 324 329 326 332 334 340 349 348 347 338 335 354 355 355 354 358 7 10 13 26 37 63 60 70 80 99 106 103 93 100 107 112 121
225 242 242 253 279 296 305 305 316 316 320 315 323 324 341 349 350 341 341 334 346 359 4 354 354 358 356 11 18 16 27 34 45 55 66 71 87 90 96 103 100 97 93 103
215 255 266 267 266 271 278 299 312 308 315 316 333 332 322 321 335 341 342 346 356 358 359 350 359 2 4 19 24 23 31 46 55 57 73 86 79 81 92 93 95 96 101 102
267 247 263 271 284 259 285 280 310 315 313 323 329 338 345 339 337 348 349 353 354 342 350 350 358 358 1 13 34 31 34 49 63 69 68 77 82 86 89 95 97 92 94 95
255 263 264 270 280 288 280 292 323 322 320 333 337 333 330 323 342 345 355 359 348 359 357 359 0 2 17 36 29 33 39 47 50 64 77 85 90 83 88 90 94 96 97 98
239 251 264 271 276 284 287 293 320 315 327 335 336 336 340 343 349 346 347 352 343 3 356 354 1 26 39 45 43 47 46 53 59 66 76 83 88 92 88 92 94 91 92 92
247 248 262 270 271 269 289 277 295 308 321 328 333 334 339 331 337 344 352 345 357 2 3 8 25 38 46 32 39 45 48 54 59 63 68 73 83 89 90 90 90 93 95 93
243 248 255 265 282 286 284 282 282 281 285 308 320 323 329 335 329 343 324 340 12 23 13 25 36 44 44 35 46 47 44 47 55 64 77 79 79 84 89 91 91 91 94 93
239 252 257 266 266 264 262 274 291 264 266 281 314 317 328 326 311 319 329 341 20 31 18 23 33 38 33 40 44 46 53 56 58 65 70 76 81 81 82 86 91 92 88 88
226 236 236 243 247 253 256 272 277 270 273 265 269 318 322 331 342 358 343 31 24 37 20 13 33 27 25 43 50 53 54 49 51 61 64 65 71 74 75 78 79 81 84 85
243 253 228 257 244 244 240 252 259 257 278 266 278 326 336 348 350 16 33 24 36 40 30 18 23 43 40 40 49 49 49 57 63 58 55 60 62 68 73 78 80 82 87 96